Sigfox identifier Datetime Temperature Humidity SNR
002F8D83 2019-04-23 14:42:45 15.6 31 18.1
002F8D83 2019-04-23 14:10:22 15.6 31 18
002F8D83 2019-04-23 13:38:00 15.6 31 17.9
002F8D83 2019-04-23 13:05:37 15.5 31 17.7
002F8D83 2019-04-23 12:33:13 15.5 31 16.8
002F8D83 2019-04-23 12:00:50 15.4 31 16.6
002F8D83 2019-04-23 11:28:26 15.4 31 16.1
002F8D83 2019-04-23 10:56:05 15.4 31 15.4
002F8D83 2019-04-23 10:23:38 15.4 31 15.4
002F8D83 2019-04-23 09:51:17 15.4 31 15.5
002F8D83 2019-04-23 09:18:51 15.4 31 14.7
002F8D83 2019-04-23 08:46:26 15.4 31 14.1
002F8D83 2019-04-23 08:14:02 15.4 31 13.5
002F8D83 2019-04-23 07:41:39 15.4 31 13.6
002F8D83 2019-04-23 07:09:15 15.4 31 13.8
002F8D83 2019-04-23 06:36:53 15.4 31 14
002F8D83 2019-04-23 06:04:27 15.4 31 14.1
002F8D83 2019-04-23 05:32:03 15.4 31 14
002F8D83 2019-04-23 04:59:37 15.4 31 14
002F8D83 2019-04-23 04:27:12 15.4 31 13.9
002F8D83 2019-04-23 03:54:46 15.4 31 14
002F8D83 2019-04-23 03:22:21 15.4 31 14
002F8D83 2019-04-23 02:49:56 15.4 31 14.1
002F8D83 2019-04-23 02:17:31 15.4 31 14.1
002F8D83 2019-04-23 01:45:06 15.4 31 14.1
002F8D83 2019-04-23 01:12:40 15.4 31 14.2
002F8D83 2019-04-23 00:40:15 15.6 31 14
002F8D83 2019-04-23 00:07:51 15.6 30 14.1
002F8D83 2019-04-22 23:35:26 15.6 30 14
002F8D83 2019-04-22 23:03:02 15.6 30 14.1
002F8D83 2019-04-22 22:30:39 15.6 30 14.1
002F8D83 2019-04-22 21:58:15 15.6 30 14.2
002F8D83 2019-04-22 21:25:50 15.6 30 14.1
002F8D83 2019-04-22 20:53:26 15.6 30 14.1
002F8D83 2019-04-22 20:21:01 15.6 30 13.9
002F8D83 2019-04-22 19:48:36 15.6 30 13.7
002F8D83 2019-04-22 19:16:12 15.6 30 13.6
002F8D83 2019-04-22 18:43:48 15.6 30 13.4
002F8D83 2019-04-22 18:11:24 15.6 30 13.3
002F8D83 2019-04-22 17:39:01 15.6 30 13.1
002F8D83 2019-04-22 17:06:37 15.6 30 12.9
002F8D83 2019-04-22 16:34:13 15.5 30 12.7
002F8D83 2019-04-22 16:01:48 15.5 30 12.6
002F8D83 2019-04-22 15:29:24 15.5 30 12.6
002F8D83 2019-04-22 14:56:58 15.5 30 12.4
002F8D83 2019-04-22 14:24:33 15.4 30 12.1
002F8D83 2019-04-22 13:52:09 15.4 30 12.1
002F8D83 2019-04-22 13:19:44 15.4 30 11.9
002F8D83 2019-04-22 12:47:18 15.4 30 11.8
002F8D83 2019-04-22 12:14:52 15.4 30 11.9
002F8D83 2019-04-22 11:42:27 15.4 30 11.6
002F8D83 2019-04-22 11:10:01 15.4 30 11.6
002F8D83 2019-04-22 10:37:36 15.4 30 11.4
002F8D83 2019-04-22 10:05:11 15.4 30 11.4
002F8D83 2019-04-22 09:32:46 15.4 30 11.3
002F8D83 2019-04-22 09:00:22 15.4 30 11.5
002F8D83 2019-04-22 08:27:57 15.4 30 11.5
002F8D83 2019-04-22 07:55:33 15.4 30 11.8
002F8D83 2019-04-22 07:23:10 15.4 30 11.9
002F8D83 2019-04-22 06:50:43 15.4 30 12.5
002F8D83 2019-04-22 06:18:17 15.4 30 12.8
002F8D83 2019-04-22 05:45:52 15.4 30 12.8
002F8D83 2019-04-22 05:13:27 15.4 30 12.8
002F8D83 2019-04-22 04:41:02 15.4 30 13.1
002F8D83 2019-04-22 04:08:39 15.4 30 13.7
002F8D83 2019-04-22 03:36:17 15.3 30 13.8
002F8D83 2019-04-22 03:03:50 15.3 30 13.9
002F8D83 2019-04-22 02:31:24 15.3 30 14.1
002F8D83 2019-04-22 01:58:59 15.2 30 14
002F8D83 2019-04-22 01:26:35 15.3 30 14.1
002F8D83 2019-04-22 00:54:13 15.2 30 14.2
002F8D83 2019-04-22 00:21:45 15.2 30 14.4
002F8D83 2019-04-21 23:49:21 15.2 29 14.4
002F8D83 2019-04-21 23:16:57 15.3 29 14.6
002F8D83 2019-04-21 22:44:34 15.3 29 14.6
002F8D83 2019-04-21 22:12:08 15.2 29 14.6
002F8D83 2019-04-21 21:39:42 15.2 29 15
002F8D83 2019-04-21 21:07:16 15.2 29 15.3
002F8D83 2019-04-21 20:34:52 15.2 29 15.2
002F8D83 2019-04-21 20:02:27 15.2 29 15.2
002F8D83 2019-04-21 19:30:02 15.2 29 15.1
002F8D83 2019-04-21 18:57:38 15.2 29 15.1
002F8D83 2019-04-21 18:25:14 15.2 29 15
002F8D83 2019-04-21 17:52:49 15.2 29 14.9
002F8D83 2019-04-21 17:20:24 15.2 29 14.6
002F8D83 2019-04-21 16:47:58 15.2 29 14.4
002F8D83 2019-04-21 16:15:33 15.2 29 14.5
002F8D83 2019-04-21 15:43:08 15.2 29 14.6
002F8D83 2019-04-21 15:10:44 15.2 29 14.4
002F8D83 2019-04-21 14:38:20 15.2 29 14
002F8D83 2019-04-21 14:05:55 15.2 29 13.9
002F8D83 2019-04-21 13:33:31 15.2 29 13.8
002F8D83 2019-04-21 13:01:05 15.2 29 13.5
002F8D83 2019-04-21 12:28:39 15.3 29 13.6
002F8D83 2019-04-21 11:56:15 15.3 29 13.5
002F8D83 2019-04-21 11:23:49 15.4 29 13.5
002F8D83 2019-04-21 10:51:22 15.4 29 13.4
002F8D83 2019-04-21 10:18:57 15.4 29 13.4
002F8D83 2019-04-21 09:46:32 15.4 29 13.4
002F8D83 2019-04-21 09:14:07 15.4 29 13.5
002F8D83 2019-04-21 08:41:43 15.4 29 13.7
002F8D83 2019-04-21 08:09:18 15.4 29 13.5
002F8D83 2019-04-21 07:36:54 15.4 29 13.3
002F8D83 2019-04-21 06:32:03 15.4 29 13.5
002F8D83 2019-04-21 05:59:38 15.4 29 13.8
002F8D83 2019-04-21 05:27:12 15.4 29 13.8
002F8D83 2019-04-21 04:54:46 15.4 29 13.9
002F8D83 2019-04-21 04:22:22 15.4 29 13.8
002F8D83 2019-04-21 03:49:56 15.4 29 14
002F8D83 2019-04-21 03:17:32 15.4 29 13.9
002F8D83 2019-04-21 02:45:08 15.4 28 14.1
002F8D83 2019-04-21 02:12:43 15.4 29 14.1
002F8D83 2019-04-21 01:40:19 15.4 28 14.2
002F8D83 2019-04-21 01:07:54 15.4 28 14.5
002F8D83 2019-04-21 00:35:29 15.4 28 14.6
002F8D83 2019-04-21 00:03:04 15.4 28 14.7
002F8D83 2019-04-20 23:30:40 15.4 28 14.8
002F8D83 2019-04-20 22:58:17 15.4 28 14.9
002F8D83 2019-04-20 22:25:49 15.4 28 14.9
002F8D83 2019-04-20 21:53:26 15.4 28 15
002F8D83 2019-04-20 21:21:02 15.4 28 15
002F8D83 2019-04-20 20:48:35 15.4 28 15
002F8D83 2019-04-20 20:16:10 15.4 28 14.9
002F8D83 2019-04-20 19:43:44 15.4 28 14.8
002F8D83 2019-04-20 19:11:18 15.4 28 14.6
002F8D83 2019-04-20 18:38:52 15.4 28 14.4
002F8D83 2019-04-20 18:06:27 15.4 28 14.2
002F8D83 2019-04-20 17:34:02 15.4 28 14.1
002F8D83 2019-04-20 17:01:36 15.4 28 13.9
002F8D83 2019-04-20 16:29:12 15.4 28 13.6
002F8D83 2019-04-20 15:56:50 15.4 28 13.5
002F8D83 2019-04-20 15:24:23 15.4 28 13.3
002F8D83 2019-04-20 14:51:58 15.4 28 13.4
002F8D83 2019-04-20 14:19:36 15.4 28 13
002F8D83 2019-04-20 13:47:09 15.4 28 13.2
002F8D83 2019-04-20 13:14:43 15.4 28 13.1
002F8D83 2019-04-20 12:42:19 15.4 28 12.9
002F8D83 2019-04-20 12:09:55 15.5 28 12.8
002F8D83 2019-04-20 11:37:30 15.4 28 12.5
002F8D83 2019-04-20 11:05:06 15.5 28 12.5
002F8D83 2019-04-20 10:32:41 15.5 28 12.7
002F8D83 2019-04-20 10:00:17 15.5 28 12.5
002F8D83 2019-04-20 09:27:52 15.6 28 12.8
002F8D83 2019-04-20 08:55:29 15.6 28 13.1
002F8D83 2019-04-20 08:23:05 15.6 28 13.4
002F8D83 2019-04-20 07:50:43 15.6 28 13.6
002F8D83 2019-04-20 07:18:18 15.6 28 13.8
002F8D83 2019-04-20 06:45:54 15.6 28 14
002F8D83 2019-04-20 06:13:27 15.6 28 14.3
002F8D83 2019-04-20 05:41:02 15.6 27 14.7
002F8D83 2019-04-20 05:08:37 15.6 27 15
002F8D83 2019-04-20 04:36:16 15.6 27 15.1
002F8D83 2019-04-20 04:03:51 15.6 27 15.4
002F8D83 2019-04-20 03:31:23 15.7 27 15.5
002F8D83 2019-04-20 02:58:58 15.7 27 15.5
002F8D83 2019-04-20 01:54:12 15.8 27 15.7
002F8D83 2019-04-20 01:21:45 15.8 27 15.9
002F8D83 2019-04-20 00:49:21 15.8 27 16
002F8D83 2019-04-20 00:16:57 15.8 27 16.2
002F8D83 2019-04-19 23:44:33 15.8 27 16.3
002F8D83 2019-04-19 23:12:10 15.8 27 16.3
002F8D83 2019-04-19 22:39:45 15.8 27 16.3
002F8D83 2019-04-19 22:07:23 15.9 27 16.4
002F8D83 2019-04-19 21:34:55 15.8 27 16.3
002F8D83 2019-04-19 21:02:32 15.9 27 16.3
002F8D83 2019-04-19 20:30:04 15.8 27 16.1
002F8D83 2019-04-19 19:57:40 15.9 27 16.1
002F8D83 2019-04-19 19:25:16 15.9 27 15.9
002F8D83 2019-04-19 18:52:51 15.8 27 15.7
002F8D83 2019-04-19 18:20:25 15.8 27 15.4
002F8D83 2019-04-19 17:48:00 15.8 27 15.2
002F8D83 2019-04-19 17:15:35 15.8 27 15
002F8D83 2019-04-19 16:43:10 15.8 27 14.8
002F8D83 2019-04-19 16:10:44 15.8 27 14.6
002F8D83 2019-04-19 15:38:19 15.8 27 14.1
002F8D83 2019-04-19 15:05:54 15.8 27 13.6
002F8D83 2019-04-19 14:33:30 15.8 27 13.5
002F8D83 2019-04-19 14:01:04 15.8 27 12.9
002F8D83 2019-04-19 13:28:38 15.8 27 12.6
002F8D83 2019-04-19 12:56:14 15.7 27 12.6
002F8D83 2019-04-19 12:23:48 15.8 26 12.3
002F8D83 2019-04-19 11:51:24 15.8 26 12
002F8D83 2019-04-19 11:18:59 15.8 26 13.5
002F8D83 2019-04-19 10:46:34 15.8 26 14.3
002F8D83 2019-04-19 10:14:10 15.8 26 15.1
002F8D83 2019-04-19 09:41:45 15.8 26 15.8
002F8D83 2019-04-19 09:09:20 15.8 26 16.4
002F8D83 2019-04-19 08:36:55 15.8 26 17
002F8D83 2019-04-19 08:04:30 15.8 26 16.9
002F8D83 2019-04-19 07:32:05 15.8 26 17.6
002F8D83 2019-04-19 06:59:39 15.9 26 18.1
002F8D83 2019-04-19 06:27:18 15.9 26 18.2
002F8D83 2019-04-19 05:22:29 16 26 18.4
002F8D83 2019-04-19 04:17:33 16 26 19
002F8D83 2019-04-19 03:45:08 16 26 19.3
002F8D83 2019-04-19 03:12:43 16 26 19.8
002F8D83 2019-04-19 02:40:20 16.1 26 20
002F8D83 2019-04-19 02:07:53 16.2 26 20.1
002F8D83 2019-04-19 01:35:28 16.2 26 20.4
002F8D83 2019-04-19 01:03:03 16.3 26 20.6
002F8D83 2019-04-19 00:30:38 16.3 26 20.7
002F8D83 2019-04-18 23:58:12 16.3 26 20.9
002F8D83 2019-04-18 23:25:47 16.3 26 20.9
002F8D83 2019-04-18 21:48:35 16.3 26 21.1
002F8D83 2019-04-18 20:43:42 16.3 26 21.1
002F8D83 2019-04-18 20:11:17 16.3 26 21.1
002F8D83 2019-04-18 19:38:52 16.3 26 21.1
002F8D83 2019-04-18 19:06:26 16.3 25 20.9
002F8D83 2019-04-18 18:34:01 16.3 25 20.7
002F8D83 2019-04-18 18:01:35 16.3 25 20.4
002F8D83 2019-04-18 17:29:10 16.3 25 20.2
002F8D83 2019-04-18 16:56:45 16.3 25 20
002F8D83 2019-04-18 16:24:19 16.1 25 19.7
002F8D83 2019-04-18 15:51:53 16.1 25 19.3
002F8D83 2019-04-18 15:19:27 16 25 19
002F8D83 2019-04-18 14:47:00 16 25 18.9
002F8D83 2019-04-18 14:14:35 16.1 25 18.7
002F8D83 2019-04-18 13:42:10 16 25 18.2
002F8D83 2019-04-18 12:37:18 16 25 18.3
002F8D83 2019-04-18 12:04:53 16.1 25 18
002F8D83 2019-04-18 11:32:28 16.1 25 18
002F8D83 2019-04-18 11:00:03 16.1 25 17.9
002F8D83 2019-04-18 10:27:39 16.1 25 18.3
002F8D83 2019-04-18 09:55:14 16.1 25 18.2
002F8D83 2019-04-18 09:22:47 16.3 25 18.4
002F8D83 2019-04-18 08:50:22 16.3 25 18.5
002F8D83 2019-04-18 08:18:01 16.3 25 18.8
002F8D83 2019-04-18 07:45:32 16.3 24 18.6
002F8D83 2019-04-18 07:13:07 16.3 24 18.9
002F8D83 2019-04-18 06:40:41 16.3 24 19.2
002F8D83 2019-04-18 06:08:16 16.3 24 19.4
002F8D83 2019-04-18 05:35:52 16.3 24 19.7
002F8D83 2019-04-18 05:03:27 16.3 24 19.9
002F8D83 2019-04-18 04:31:01 16.3 24 20.1
002F8D83 2019-04-18 03:58:37 16.4 24 20.2
002F8D83 2019-04-18 03:26:12 16.5 24 20.5
002F8D83 2019-04-18 02:53:47 16.5 24 20.5
002F8D83 2019-04-18 02:21:22 16.5 24 20.6
002F8D83 2019-04-18 01:48:56 16.6 24 20.6
002F8D83 2019-04-18 01:16:31 16.7 24 20.9
002F8D83 2019-04-18 00:44:05 16.7 24 21
002F8D83 2019-04-18 00:11:39 16.7 24 21.2
002F8D83 2019-04-17 23:39:13 16.7 24 21.2
002F8D83 2019-04-17 23:06:48 16.7 24 21.1
002F8D83 2019-04-17 22:34:23 16.7 24 21
002F8D83 2019-04-17 22:01:58 16.7 24 20.9
002F8D83 2019-04-17 21:29:32 16.7 24 20.5
002F8D83 2019-04-17 20:57:06 16.7 24 20.5
002F8D83 2019-04-17 20:24:40 16.7 24 20.4
002F8D83 2019-04-17 19:52:16 16.7 24 20.4
002F8D83 2019-04-17 19:19:51 16.8 23 20.3
002F8D83 2019-04-17 18:47:25 16.8 23 20.2
002F8D83 2019-04-17 18:15:01 16.9 23 20.1
002F8D83 2019-04-17 17:42:35 16.9 23 19.9
002F8D83 2019-04-17 17:10:11 16.9 23 19.8
002F8D83 2019-04-17 16:37:45 16.9 23 19.8
002F8D83 2019-04-17 16:05:18 16.9 23 19.8
002F8D83 2019-04-17 15:32:51 17 23 19.7
002F8D83 2019-04-17 15:00:26 17.1 23 20
002F8D83 2019-04-17 14:28:01 17.1 23 19.9
002F8D83 2019-04-17 13:55:35 17.1 23 20.1
002F8D83 2019-04-17 12:50:44 17.2 23 20.1
002F8D83 2019-04-17 12:18:19 17.3 23 20.6
002F8D83 2019-04-17 11:45:54 17.3 23 21.6
002F8D83 2019-04-17 11:13:29 17.3 23 21.6
002F8D83 2019-04-17 10:41:04 17.3 23 21.4
002F8D83 2019-04-17 10:08:39 17.5 23 22.5
002F8D83 2019-04-17 09:36:13 17.5 23 22.3
002F8D83 2019-04-17 09:03:48 17.6 23 22.3
002F8D83 2019-04-17 08:31:22 17.8 22 22.3
002F8D83 2019-04-17 07:58:55 17.8 22 22.2
002F8D83 2019-04-17 07:26:30 18 22 22.2
002F8D83 2019-04-17 06:54:04 18 22 22.2
002F8D83 2019-04-17 06:21:38 18 22 23
002F8D83 2019-04-17 05:49:13 18.1 22 23.1
002F8D83 2019-04-17 05:16:49 18.2 22 23.2
002F8D83 2019-04-17 04:44:23 18.2 22 23.3
002F8D83 2019-04-17 04:11:57 18.3 22 23.3
002F8D83 2019-04-17 03:39:30 18.4 22 23.3
002F8D83 2019-04-17 03:07:04 18.4 22 23.2
002F8D83 2019-04-17 02:34:38 18.5 22 23.1
002F8D83 2019-04-17 02:02:12 18.6 22 23
002F8D83 2019-04-17 01:29:46 18.6 22 22.9
002F8D83 2019-04-17 00:57:20 18.6 22 22.7
002F8D83 2019-04-17 00:24:53 18.7 22 22.6
002F8D83 2019-04-16 23:52:27 18.8 22 22.5
002F8D83 2019-04-16 23:20:02 18.8 22 22.4
002F8D83 2019-04-16 22:47:37 19 22 22.2
002F8D83 2019-04-16 22:15:12 19.2 22 21
002F8D83 2019-04-16 21:42:45 19.2 22 21
002F8D83 2019-04-16 21:10:20 19.2 22 21
002F8D83 2019-04-16 20:37:54 19.5 21 19.4
002F8D83 2019-04-16 20:05:29 19.5 21 19.4
002F8D83 2019-04-16 19:33:04 19.6 21 19.6
002F8D83 2019-04-16 19:00:37 19.7 21 19.6
002F8D83 2019-04-16 18:28:11 19.8 21 19.7
002F8D83 2019-04-16 17:55:45 19.9 21 19.7
002F8D83 2019-04-16 16:50:52 20.1 21 19.6
002F8D83 2019-04-16 16:18:26 20.3 21 17.1
002F8D83 2019-04-16 15:46:04 20.5 21 16.8
002F8D83 2019-04-16 15:13:33 20.5 21 16.2
002F8D83 2019-04-16 14:41:07 20.7 22 15.4
002F8D83 2019-04-16 13:36:15 20.7 22 15.8
002F8D83 2019-04-16 13:03:49 20.7 22 15.9
002F8D83 2019-04-16 12:31:23 20.7 22 15.9
002F8D83 2019-04-16 11:58:53 20.7 22 16.1
002F8D83 2019-04-16 11:26:29 20.7 22 16.1
002F8D83 2019-04-16 10:54:00 20.6 21 16.1
002F8D83 2019-04-16 10:21:36 20.6 21 16.2
002F8D83 2019-04-16 09:49:13 20.6 21 16.4
002F8D83 2019-04-16 09:16:43 20.6 21 16.6
002F8D83 2019-04-16 08:11:51 20.6 21 16.6
002F8D83 2019-04-16 07:39:24 20.6 21 16.7
002F8D83 2019-04-16 07:06:55 20.7 21 16.9
002F8D83 2019-04-16 06:34:28 20.7 21 17.1
002F8D83 2019-04-16 06:02:00 20.7 21 17
002F8D83 2019-04-16 05:29:33 20.7 21 17.1
002F8D83 2019-04-16 04:57:05 20.7 21 17
002F8D83 2019-04-16 04:24:39 20.7 21 16.6
002F8D83 2019-04-16 03:52:12 20.7 21 16.6
002F8D83 2019-04-16 03:19:46 20.7 21 16.4
002F8D83 2019-04-16 02:47:19 20.7 20 17
002F8D83 2019-04-16 02:14:52 20.7 20 17.5
002F8D83 2019-04-16 01:42:26 20.8 20 17.8
002F8D83 2019-04-16 01:10:01 20.7 20 18
002F8D83 2019-04-16 00:37:33 20.7 20 18.5
002F8D83 2019-04-16 00:05:06 20.8 20 18.6
002F8D83 2019-04-15 23:32:39 20.8 20 18.9
002F8D83 2019-04-15 23:00:14 20.8 20 19.7
002F8D83 2019-04-15 22:27:46 21 20 20.2
002F8D83 2019-04-15 21:55:20 21 20 20.6
002F8D83 2019-04-15 21:22:53 21 20 21.1
002F8D83 2019-04-15 20:50:27 21 19 21.4
002F8D83 2019-04-15 20:18:00 21 19 21.7
002F8D83 2019-04-15 19:45:34 21 19 22
002F8D83 2019-04-15 19:13:07 21.2 19 22.2
002F8D83 2019-04-15 18:40:40 21.2 19 22.3
002F8D83 2019-04-15 18:08:12 21.2 19 22.5
002F8D83 2019-04-15 17:35:44 21.4 19 22.7
002F8D83 2019-04-15 16:30:51 21.4 18 22.9
002F8D83 2019-04-15 15:58:24 21.6 18 23.1
002F8D83 2019-04-15 14:53:29 21.7 18 23.3
002F8D83 2019-04-15 14:21:01 21.8 17 23.4
002F8D83 2019-04-15 13:16:06 22 17 23.6
002F8D83 2019-04-15 12:43:39 22 16 23.9
002F8D83 2019-04-15 12:11:12 22.1 16 23.9
002F8D83 2019-04-15 11:38:45 22 15 24.1
002F8D83 2019-04-15 11:06:18 22 16 24.1
002F8D83 2019-04-15 10:33:50 22 16 24.2
002F8D83 2019-04-15 10:01:23 21.9 16 24.3
002F8D83 2019-04-15 09:28:56 21.8 17 24.3
002F8D83 2019-04-15 08:56:28 21.8 16 24.4
002F8D83 2019-04-15 08:24:00 21.8 16 24.7
002F8D83 2019-04-15 07:51:33 21.6 16 24.6
002F8D83 2019-04-15 07:19:06 21.6 16 24.6
002F8D83 2019-04-15 06:46:39 21.6 17 24.6
002F8D83 2019-04-15 06:14:12 21.6 17 24.5
002F8D83 2019-04-15 05:41:43 21.6 17 24.4
002F8D83 2019-04-15 05:09:15 21.6 17 24.3
002F8D83 2019-04-15 04:36:49 21.6 17 24.3
002F8D83 2019-04-15 04:04:21 21.6 17 24.3
002F8D83 2019-04-15 03:31:53 21.6 17 24.3
002F8D83 2019-04-15 02:59:27 21.6 17 24.8
002F8D83 2019-04-15 02:27:01 21.6 17 24.7
002F8D83 2019-04-15 01:54:35 21.6 17 24.7
002F8D83 2019-04-15 01:22:07 21.6 17 24.7
002F8D83 2019-04-15 00:49:40 21.6 17 24.6
002F8D83 2019-04-15 00:17:13 21.6 17 24.6
002F8D83 2019-04-14 23:44:46 21.6 17 24.6
002F8D83 2019-04-14 23:12:19 21.6 17 24.6
002F8D83 2019-04-14 22:39:52 21.6 17 24.6
002F8D83 2019-04-14 22:07:26 21.6 17 24.5
002F8D83 2019-04-14 21:34:58 21.6 18 25
002F8D83 2019-04-14 21:02:31 21.7 18 24.9
002F8D83 2019-04-14 20:30:04 21.8 18 24.9
002F8D83 2019-04-14 19:57:36 21.8 18 25
002F8D83 2019-04-14 19:25:09 21.8 18 24.9
002F8D83 2019-04-14 18:52:42 21.8 18 24.8
002F8D83 2019-04-14 18:20:14 21.7 17 24.9
002F8D83 2019-04-14 17:47:48 21.6 17 24.9
002F8D83 2019-04-14 17:15:21 21.6 17 24.9
002F8D83 2019-04-14 16:42:54 21.6 17 24.9
002F8D83 2019-04-14 16:10:27 21.6 17 24.9
002F8D83 2019-04-14 15:38:00 21.6 18 25.1
002F8D83 2019-04-14 15:05:33 21.6 18 25.2
002F8D83 2019-04-14 14:33:07 21.6 18 25.2
002F8D83 2019-04-14 14:00:41 21.6 18 25.3
002F8D83 2019-04-14 13:28:15 21.6 18 24.9
002F8D83 2019-04-14 12:55:48 21.6 18 24.9
002F8D83 2019-04-14 12:23:22 21.6 18 25.3
002F8D83 2019-04-14 11:50:55 21.6 18 25.7
002F8D83 2019-04-14 11:18:30 21.6 18 25.8
002F8D83 2019-04-14 10:46:03 21.6 18 25.8
002F8D83 2019-04-14 10:13:37 21.6 18 25.8
002F8D83 2019-04-14 09:41:10 21.6 18 25.7
002F8D83 2019-04-14 09:08:45 21.6 18 25.7
002F8D83 2019-04-14 08:36:18 21.6 18 25.6
002F8D83 2019-04-14 08:03:52 21.6 17 25.2
002F8D83 2019-04-14 07:31:25 21.6 17 25.2
002F8D83 2019-04-14 06:58:59 21.6 17 25.2
002F8D83 2019-04-14 06:26:31 21.6 17 25.2
002F8D83 2019-04-14 05:54:05 21.6 17 25.2
002F8D83 2019-04-14 05:21:37 21.6 17 25.2
002F8D83 2019-04-14 04:49:10 21.6 17 25.1
002F8D83 2019-04-14 04:16:43 21.6 17 25.1
002F8D83 2019-04-14 03:44:16 21.6 17 25.4
002F8D83 2019-04-14 03:11:50 21.6 17 25.5
002F8D83 2019-04-14 02:39:22 21.7 17 25.5
002F8D83 2019-04-14 02:06:55 21.7 17 25.4
002F8D83 2019-04-14 01:34:27 21.8 17 25.4
002F8D83 2019-04-14 01:02:00 21.8 17 25.3
002F8D83 2019-04-14 00:29:33 21.8 17 25.2
002F8D83 2019-04-13 23:57:05 21.8 17 25.2
002F8D83 2019-04-13 23:24:38 21.8 17 25.2
002F8D83 2019-04-13 22:52:10 21.8 17 24.9
002F8D83 2019-04-13 22:19:44 21.8 17 24.5
002F8D83 2019-04-13 21:47:17 21.8 17 24.5
002F8D83 2019-04-13 21:14:50 21.8 17 24.5
002F8D83 2019-04-13 20:42:24 21.8 17 24.4
002F8D83 2019-04-13 20:09:56 21.8 17 24.5
002F8D83 2019-04-13 19:37:28 21.9 17 24.5
002F8D83 2019-04-13 19:04:59 22 17 24.6
002F8D83 2019-04-13 18:32:33 22 17 24.7
002F8D83 2019-04-13 18:00:05 22 17 24.6
002F8D83 2019-04-13 17:27:37 22 17 24.7
002F8D83 2019-04-13 16:55:08 22 17 24.7
002F8D83 2019-04-13 16:22:41 22 17 24.7
002F8D83 2019-04-13 15:50:14 22 17 24.7
002F8D83 2019-04-13 15:17:46 22 17 24.8
002F8D83 2019-04-13 14:45:18 22 17 24.8
002F8D83 2019-04-13 14:12:51 22 17 24.3
002F8D83 2019-04-13 13:40:24 22 17 24.3
002F8D83 2019-04-13 13:07:56 22.1 17 24.4
002F8D83 2019-04-13 12:35:29 22.2 17 24.4
002F8D83 2019-04-13 12:03:01 22.2 17 24.4
002F8D83 2019-04-13 11:30:33 22.1 17 24.4
002F8D83 2019-04-13 10:58:04 22 17 24.4
002F8D83 2019-04-13 10:25:36 22.1 17 24.4
002F8D83 2019-04-13 09:53:08 22 17 24.3
002F8D83 2019-04-13 09:20:39 22 17 24.1
002F8D83 2019-04-13 08:48:09 22 17 24.2
002F8D83 2019-04-13 08:15:40 22 17 24.1
002F8D83 2019-04-13 07:43:11 22 17 24.1
002F8D83 2019-04-13 07:10:42 22 17 24.3
002F8D83 2019-04-13 06:38:14 22 17 24.3
002F8D83 2019-04-13 06:05:45 22 17 24.2
002F8D83 2019-04-13 05:33:17 22 17 24.1
002F8D83 2019-04-13 05:00:48 22 17 24.6
002F8D83 2019-04-13 04:28:21 22.1 17 24.6
002F8D83 2019-04-13 03:55:53 22.1 17 25
002F8D83 2019-04-13 03:23:25 22.2 17 25.3
002F8D83 2019-04-13 02:50:57 22.2 17 25.3
002F8D83 2019-04-13 02:18:29 22.2 17 25.2
002F8D83 2019-04-13 01:46:01 22.2 17 25.2
002F8D83 2019-04-13 01:13:33 22.2 17 25.2
002F8D83 2019-04-13 00:41:05 22.2 17 25.3
002F8D83 2019-04-13 00:08:38 22.2 18 25.3
002F8D83 2019-04-12 23:36:10 22.4 18 25.2
002F8D83 2019-04-12 23:03:41 22.5 18 25.3
002F8D83 2019-04-12 22:31:14 22.5 18 25.3
002F8D83 2019-04-12 21:58:44 22.5 18 25.5
002F8D83 2019-04-12 21:26:16 22.5 18 25.5
002F8D83 2019-04-12 20:53:48 22.6 18 25.6
002F8D83 2019-04-12 20:21:19 22.5 18 25.8
002F8D83 2019-04-12 19:48:51 22.6 17 25.9
002F8D83 2019-04-12 19:16:23 22.7 17 26
002F8D83 2019-04-12 18:43:55 22.7 16 26.2
002F8D83 2019-04-12 18:11:26 22.9 16 26.4
002F8D83 2019-04-12 17:38:57 22.9 17 26.5
002F8D83 2019-04-12 17:06:28 22.9 17 26.7
002F8D83 2019-04-12 16:33:59 22.9 17 27.1
002F8D83 2019-04-12 16:01:30 22.9 17 27.6
002F8D83 2019-04-12 15:29:01 22.7 18 26.9
002F8D83 2019-04-12 14:56:31 22.5 18 27.5
002F8D83 2019-04-12 14:24:02 22.2 19 26.3
002F8D83 2019-04-12 13:51:33 21.9 19 21.3
002F8D83 2019-04-12 13:19:03 21.2 21 14.2